Kuchera_Ratio
0.0 0.0 0.0 0.0 0.0 0.0 0.0 0.0 0.0 0.0 0.0 0.0 0.0 0.0 0.0 0.0 0.0 0.0 0.0 0.0 0.0 0.0 0.0 0.0 0.0 0.0 0.0 0.0 0.0 0.0 0.0 0.0 0.0 0.0 0.0 0.0 0.0 0.0 0.0 0.0 0.0 0.0 0.0 0.0
0.0 0.0 0.0 0.0 0.0 0.0 0.0 0.0 0.0 0.0 0.0 0.0 0.0 0.0 0.0 0.0 0.0 0.0 0.0 0.0 0.0 0.0 0.0 0.0 0.0 0.0 0.0 0.0 0.0 0.0 0.0 0.0 0.0 0.0 0.0 0.0 0.0 0.0 0.0 0.0 0.0 0.0 0.0 0.0
0.0 0.0 0.0 0.0 0.0 0.0 0.0 0.0 0.5 0.5 0.0 0.0 0.0 0.0 0.0 0.0 0.0 0.0 0.0 0.0 0.0 0.0 0.0 0.0 0.0 0.0 0.0 0.0 0.0 0.0 0.0 0.0 0.0 0.0 0.0 0.0 0.0 0.0 0.0 0.0 0.0 0.0 0.0 0.0
0.0 0.0 0.0 0.0 0.0 0.0 0.3 1.0 1.2 0.6 1.5 1.1 0.2 0.0 0.0 0.0 0.0 0.0 0.0 0.0 0.0 0.0 0.0 0.0 0.0 0.0 0.0 0.0 0.0 0.0 0.0 0.0 0.0 0.0 0.0 0.0 0.0 0.0 0.0 0.0 0.0 0.5 0.1 0.1
0.0 0.0 0.0 0.0 0.0 1.3 1.7 2.7 1.7 2.7 3.5 4.2 3.3 2.5 0.0 0.0 0.0 0.0 0.0 0.0 0.0 0.0 0.0 0.0 0.0 0.0 0.0 0.0 0.0 0.0 0.0 0.0 0.0 0.0 0.0 0.0 0.0 0.0 0.0 0.7 1.4 1.5 2.8 1.8
0.0 0.0 0.0 0.0 0.0 1.1 2.5 3.4 3.9 5.5 6.0 5.5 4.8 3.8 0.9 0.0 0.0 0.0 0.0 0.0 0.0 0.0 0.0 0.0 0.0 0.0 0.0 0.0 0.0 0.0 0.0 0.0 0.0 0.0 0.0 0.0 0.6 0.9 2.4 3.1 4.7 4.8 3.9 6.4
0.0 0.0 0.0 0.9 0.3 2.4 3.1 4.9 5.7 8.6 8.8 7.8 5.7 7.3 1.6 0.0 0.0 0.0 0.0 0.0 0.0 0.0 0.0 0.0 0.0 0.0 0.0 0.0 0.0 0.0 0.0 0.0 0.0 0.0 0.0 0.0 0.4 2.1 3.6 3.7 5.9 6.4 5.4 7.5
4.8 3.0 0.0 1.3 3.1 3.7 5.7 7.3 7.6 12.9 12.1 12.2 5.8 8.3 0.0 0.0 0.0 0.0 0.0 0.0 0.0 0.0 0.0 0.0 0.0 0.0 0.0 0.0 0.0 0.0 0.0 0.0 0.0 0.0 0.0 0.0 0.5 2.4 3.7 4.4 5.2 6.8 6.6 4.1
4.6 4.2 0.4 3.1 3.9 5.8 7.0 7.5 9.0 11.3 13.6 14.3 9.8 5.2 0.4 0.0 1.6 0.0 0.0 0.0 0.0 0.0 0.0 0.0 0.0 0.0 0.0 0.0 0.0 0.0 0.0 0.0 0.0 0.0 0.0 0.7 1.8 3.5 4.9 5.2 5.8 7.0 6.6 3.2
3.3 10.2 3.2 3.9 5.4 7.7 8.3 9.2 11.2 11.3 13.9 14.7 12.7 8.8 1.4 3.4 2.2 0.9 0.0 0.0 0.0 0.0 0.0 0.0 0.0 0.0 0.0 0.0 0.0 0.0 0.0 0.0 0.0 0.9 2.1 3.9 4.6 5.5 6.1 6.9 7.5 8.1 7.5 6.3
4.8 7.2 4.7 5.9 5.4 7.1 10.7 10.0 11.9 12.3 12.2 14.8 15.3 11.7 0.0 0.0 0.0 1.0 0.0 0.0 0.0 0.0 0.0 0.0 0.0 0.0 0.0 0.0 0.0 0.0 0.4 2.1 3.4 4.0 5.1 6.4 6.8 7.6 8.5 9.3 9.1 8.6 8.5 7.7
4.7 7.8 12.6 4.3 7.8 9.2 9.1 9.5 9.5 12.3 13.3 13.9 16.0 13.8 0.0 0.0 0.0 0.4 0.0 0.0 0.0 0.0 0.0 0.0 0.0 0.0 0.1 0.5 0.5 0.5 2.4 4.0 4.4 6.5 8.1 9.4 9.3 10.0 11.3 10.8 9.6 9.7 10.5 8.3
4.7 10.3 13.4 10.1 10.2 7.9 9.1 9.0 9.5 11.1 12.8 15.5 14.9 12.6 1.0 0.0 1.1 0.5 1.3 0.0 0.0 0.0 0.2 1.3 0.0 0.1 2.2 2.0 1.6 3.6 5.1 5.7 6.9 9.5 11.1 10.8 11.1 11.4 11.3 10.7 10.2 9.8 10.7 10.5
3.2 10.9 7.9 11.2 6.9 7.8 9.4 8.7 9.6 11.8 16.0 15.8 15.3 10.2 0.8 0.0 3.0 1.6 0.0 0.0 0.0 0.4 2.3 3.4 1.4 2.5 4.1 3.1 4.1 6.4 7.5 7.8 10.2 11.9 12.2 12.6 12.4 12.1 12.0 11.5 11.2 11.0 10.8 11.2
9.9 12.6 12.2 9.6 9.6 10.7 11.6 12.1 13.4 14.8 12.6 17.1 9.6 11.1 7.5 4.0 5.4 2.8 0.0 0.0 0.8 2.6 3.5 3.8 4.2 5.1 5.6 6.2 7.2 8.8 10.4 11.5 12.4 13.5 13.4 13.4 12.6 12.4 12.5 12.4 12.2 12.0 12.0 11.6
12.0 13.5 14.0 14.8 10.4 12.9 14.3 10.3 12.8 13.2 13.7 14.4 12.6 12.1 5.3 2.4 1.9 1.4 0.5 1.7 3.0 3.5 4.8 5.6 6.1 6.0 5.7 7.8 9.7 8.7 10.9 13.1 13.6 14.2 14.4 13.5 13.2 12.9 13.0 12.7 12.7 12.5 12.3 12.2
12.8 13.6 14.6 15.3 14.1 14.6 15.2 7.4 7.5 11.0 8.2 8.2 12.3 5.5 5.0 6.1 6.4 4.9 1.1 1.7 3.2 5.2 7.2 7.7 6.8 6.5 7.3 8.7 9.8 8.9 11.7 13.6 14.1 14.8 14.4 14.0 13.6 13.7 13.4 12.9 13.0 12.9 12.9 12.2
13.4 13.9 14.2 16.3 16.3 16.8 6.0 4.9 7.0 9.4 8.1 8.0 7.3 2.2 2.7 5.9 2.8 3.2 1.0 2.7 4.9 7.3 6.7 7.6 7.7 7.4 7.9 9.5 11.0 11.2 12.9 14.2 14.7 14.9 15.0 14.1 14.0 14.0 13.5 13.6 13.8 13.9 13.5 13.5
10.7 12.6 15.6 16.6 17.4 14.1 8.2 5.8 6.8 7.5 10.0 1.4 3.4 5.3 7.6 2.2 8.5 6.2 0.7 3.9 3.7 5.0 6.1 8.2 9.3 9.0 10.1 11.4 12.4 12.6 13.4 14.7 15.1 15.4 15.0 14.4 14.3 14.7 14.5 14.8 14.8 14.3 13.9 13.6
13.3 13.4 16.0 17.2 18.8 18.5 6.3 4.6 6.1 8.2 13.9 5.7 7.6 10.4 7.8 7.5 14.4 12.2 5.0 3.3 5.2 6.6 7.3 9.1 10.6 11.0 12.2 12.1 13.5 13.6 14.3 14.9 15.3 15.3 14.6 14.2 14.2 14.6 15.1 14.7 14.7 14.2 14.1 13.8
14.3 15.8 16.9 15.7 18.4 15.8 5.4 5.6 6.8 15.9 12.3 4.4 7.0 8.5 10.5 13.4 9.0 8.2 5.6 7.2 8.3 8.0 9.6 11.4 12.1 12.5 13.3 13.4 14.4 14.7 15.5 15.6 15.5 14.4 14.1 14.2 14.2 14.5 14.6 14.6 14.3 14.3 14.4 14.2
11.9 15.0 15.9 18.2 19.6 18.8 4.0 8.1 11.0 8.0 5.0 6.9 9.7 8.5 8.5 10.4 10.6 10.3 9.0 8.6 8.2 8.3 9.2 10.5 11.2 10.5 12.1 13.9 14.9 15.2 15.7 15.7 15.1 15.0 14.9 15.0 14.9 14.2 13.2 14.1 14.3 14.0 14.5 15.4
13.2 6.9 8.5 13.3 11.4 3.3 3.6 0.7 1.3 2.9 7.3 8.1 9.4 7.2 9.5 10.4 10.1 10.4 7.9 7.3 6.1 8.4 9.8 11.4 12.7 12.4 12.0 14.5 15.6 16.4 15.7 16.0 15.7 15.9 16.0 15.7 14.8 14.2 13.8 14.4 14.7 14.9 14.4 14.7
9.4 5.5 11.0 11.3 4.1 2.4 0.0 0.0 3.1 2.7 9.6 5.0 7.3 8.4 9.2 10.1 7.6 7.3 6.6 6.8 8.5 10.1 12.1 12.8 13.5 13.7 13.1 13.9 15.8 16.6 16.6 16.2 16.5 17.0 16.7 15.9 15.9 15.0 13.9 13.4 13.6 14.5 15.3 15.6
6.6 8.1 7.1 7.8 2.9 1.1 5.0 7.0 4.1 4.5 4.9 7.0 7.2 7.3 6.8 7.3 8.6 10.1 10.3 10.7 11.5 12.2 12.4 13.5 14.6 14.7 14.2 15.1 16.3 16.6 16.9 17.6 17.7 17.0 16.7 16.2 15.7 15.6 15.3 14.4 14.2 13.8 13.3 13.2
5.5 6.1 9.6 9.6 0.0 3.8 8.6 5.6 3.5 4.8 6.3 3.2 4.9 7.6 5.0 6.9 9.9 9.3 12.2 10.3 11.9 12.6 12.9 14.3 15.2 15.7 15.4 16.4 17.1 17.2 17.0 18.1 18.3 17.7 16.3 16.2 15.4 15.3 15.3 14.8 14.8 10.6 9.2 8.1